DW8463 Weather Reports


time (UTC)temp
C
wind
direction
speed
KPH
gust
KPH
rain 1hr
cm
rain 24hr
cm
rain mn
cm
humidity
%
barometer
mb
20260906145306 21 213 3.2 4.8 0.00 0.00 0.00 100 1017.9
20260906144804 21 307 3.2 8.0 0.00 0.00 0.00 100 1017.9
20260906144303 21 0 6.4 16.1 0.00 0.00 0.00 100 1017.8
20260906143803 21 0 8.0 16.1 0.00 0.00 0.00 100 1017.6
20260906143303 21 0 3.2 8.0 0.00 0.00 0.00 100 1017.7
20260906142803 21 206 3.2 4.8 0.00 0.00 0.00 100 1017.6
20260906142306 21 130 8.0 16.1 0.00 0.00 0.00 100 1017.6
20260906141803 21 130 4.8 12.9 0.00 0.00 0.00 100 1017.6
20260906141304 21 155 4.8 14.5 0.00 0.00 0.00 100 1017.7
20260906140803 21 154 4.8 11.3 0.00 0.00 0.00 100 1017.6
20260906140303 20 140 3.2 14.5 0.00 0.00 0.00 100 1017.6
20260906135803 20 154 9.7 16.1 0.00 0.00 0.00 100 1017.6
20260906135306 20 147 4.8 12.9 0.00 0.00 0.00 100 1017.6
20260906134804 20 129 9.7 19.3 0.00 0.00 0.00 100 1017.4
20260906134303 20 146 8.0 19.3 0.00 0.00 0.00 100 1017.4
20260906133303 20 119 6.4 16.1 0.00 0.00 0.00 100 1017.4
20260906132803 20 130 6.4 19.3 0.00 0.00 0.00 100 1017.4
20260906132306 20 126 11.3 27.4 0.00 0.00 0.00 100 1017.3
20260906131802 20 118 9.7 16.1 0.00 0.00 0.00 100 1017.3
20260906130804 20 92 3.2 9.7 0.00 0.00 0.00 100 1017.2
20260906125803 20 124 4.8 14.5 0.00 0.00 0.00 100 1017.1
20260906125306 20 99 6.4 14.5 0.00 0.00 0.00 100 1017.1
20260906124803 20 116 3.2 8.0 0.00 0.00 0.00 100 1017.1
20260906124303 20 124 4.8 11.3 0.00 0.00 0.00 100 1017.2
20260906123803 20 106 3.2 8.0 0.00 0.00 0.00 100 1017.2
20260906123303 20 132 3.2 8.0 0.00 0.00 0.00 100 1017.0
20260906122803 20 88 3.2 9.7 0.00 0.00 0.00 100 1016.9
20260906122306 20 125 3.2 9.7 0.00 0.00 0.00 100 1017.0
20260906121303 19 114 3.2 4.8 0.00 0.00 0.00 100 1016.9
20260906120804 19 91 3.2 9.7 0.00 0.00 0.00 100 1016.9
20260906120303 19 78 1.6 4.8 0.00 0.00 0.00 100 1016.9
20260906115803 19 98 1.6 4.8 0.00 0.00 0.00 100 1016.8
20260906115306 19 75 3.2 8.0 0.00 0.00 0.00 100 1016.8
20260906114803 19 111 1.6 3.2 0.00 0.00 0.00 100 1016.8
20260906114303 18 112 0.0 3.2 0.00 0.00 0.00 100 1016.7
20260906112803 18 113 1.6 4.8 0.00 0.00 0.00 100 1016.7
20260906112306 18 112 0.0 4.8 0.00 0.00 0.00 100 1016.8
20260906111803 18 74 1.6 1.6 0.00 0.00 0.00 100 1016.7
20260906111304 18 74 0.0 0.0 0.00 0.00 0.00 100 1016.7
20260906110803 18 75 0.0 0.0 0.00 0.00 0.00 100 1016.7
20260906110304 18 72 0.0 0.0 0.00 0.00 0.00 100 1016.7
20260906105803 18 86 0.0 0.0 0.00 0.00 0.00 100 1016.6
20260906105306 18 86 0.0 1.6 0.00 0.00 0.00 100 1016.5
20260906104303 18 87 1.6 3.2 0.00 0.00 0.00 100 1016.4
20260906103803 18 87 0.0 0.0 0.00 0.00 0.00 100 1016.3
20260906102803 19 87 1.6 4.8 0.00 0.00 0.00 100 1016.1
20260906102306 19 87 1.6 4.8 0.00 0.00 0.00 100 1016.0
20260906101803 19 87 1.6 4.8 0.00 0.00 0.00 100 1015.9
20260906101304 19 87 1.6 4.8 0.00 0.00 0.00 100 1015.9
20260906100803 19 87 0.0 4.8 0.00 0.00 0.00 100 1015.9
20260906100303 19 87 1.6 4.8 0.00 0.00 0.00 100 1015.9
20260906095803 19 87 3.2 4.8 0.00 0.00 0.00 100 1015.9
20260906095305 19 87 0.0 3.2 0.00 0.00 0.00 100 1015.8
20260906094803 19 87 3.2 4.8 0.00 0.00 0.00 100 1015.6
20260906094304 19 117 1.6 4.8 0.00 0.00 0.00 100 1015.6
20260906093803 19 117 1.6 4.8 0.00 0.00 0.00 100 1015.6
20260906093303 19 88 1.6 4.8 0.00 0.00 0.00 100 1015.6
20260906092803 19 88 1.6 3.2 0.00 0.00 0.00 100 1015.5
20260906092306 19 56 1.6 4.8 0.00 0.00 0.00 100 1015.5
20260906091303 19 69 3.2 8.0 0.00 0.00 0.00 100 1015.5
20260906090803 19 66 1.6 4.8 0.00 0.00 0.00 100 1015.4
20260906090303 19 106 1.6 9.7 0.00 0.00 0.00 100 1015.3
20260906085803 20 72 1.6 4.8 0.00 0.00 0.00 100 1015.3
20260906085306 20 99 3.2 4.8 0.00 0.00 0.00 100 1015.2
20260906084304 20 85 1.6 4.8 0.00 0.00 0.00 100 1015.2
20260906083803 20 98 3.2 4.8 0.00 0.00 0.00 100 1015.1
20260906082803 20 78 3.2 9.7 0.00 0.00 0.00 100 1015.2
20260906082306 20 71 3.2 8.0 0.00 0.00 0.00 100 1015.2
20260906080803 20 128 1.6 4.8 0.00 0.00 0.00 100 1015.6
20260906080303 20 128 0.0 3.2 0.00 0.00 0.00 100 1015.6
20260906075803 20 128 1.6 4.8 0.00 0.00 0.00 100 1015.7
20260906075306 20 128 0.0 0.0 0.00 0.00 0.00 100 1015.7
20260906074303 20 128 0.0 0.0 0.00 0.00 0.00 100 1015.7
20260906073803 20 128 0.0 1.6 0.00 0.00 0.00 100 1015.6
20260906073303 20 128 1.6 3.2 0.00 0.00 0.00 100 1015.7
20260906072803 20 128 0.0 3.2 0.00 0.00 0.00 100 1015.6
20260906072305 20 128 0.0 0.0 0.00 0.00 0.00 100 1015.6
20260906070803 20 128 0.0 0.0 0.00 0.00 0.00 100 1015.7
20260906065803 20 128 0.0 0.0 0.00 0.00 0.00 100 1015.8
20260906065305 20 128 0.0 0.0 0.00 0.00 0.00 100 1015.7
20260906064803 20 128 0.0 0.0 0.00 0.00 0.00 100 1015.7
20260906064303 20 128 0.0 0.0 0.00 0.00 0.00 100 1015.7
20260906063803 20 128 0.0 0.0 0.00 0.00 0.00 100 1015.8
20260906063304 20 132 0.0 0.0 0.00 0.00 0.00 100 1015.8
20260906062306 20 132 0.0 0.0 0.00 0.00 0.00 100 1015.8
20260906061803 20 132 0.0 0.0 0.00 0.00 0.00 100 1015.8
20260906061303 20 132 0.0 0.0 0.00 0.00 0.00 100 1015.9
20260906060803 20 132 0.0 0.0 0.00 0.00 0.00 100 1016.0
20260906060303 20 132 0.0 0.0 0.00 0.00 0.00 100 1016.0
20260906054803 20 132 0.0 0.0 0.00 0.00 0.00 100 1015.9
20260906054303 20 132 0.0 0.0 0.00 0.00 0.00 100 1015.9
20260906053304 20 132 0.0 0.0 0.00 0.00 0.00 100 1016.1
20260906052804 20 133 0.0 0.0 0.00 0.00 0.00 100 1016.1
20260906052305 20 133 0.0 0.0 0.00 0.00 0.00 100 1016.1
20260906051803 20 133 0.0 0.0 0.00 0.00 0.00 100 1016.1
20260906051303 20 133 0.0 1.6 0.00 0.00 0.00 100 1016.0
20260906050814 20 132 0.0 4.8 0.00 0.00 0.00 100 1016.0
20260906050303 21 133 0.0 3.2 0.00 0.00 0.00 100 1016.0
20260906045804 21 133 0.0 4.8 0.00 0.00 0.00 100 1016.0
20260906045305 21 133 1.6 4.8 0.00 0.00 0.00 100 1016.1
20260906044803 21 133 1.6 4.8 0.00 0.00 0.00 100 1016.0
20260906044304 21 133 1.6 4.8 0.00 0.00 0.00 100 1016.0
20260906043803 21 133 1.6 4.8 0.00 0.00 0.00 100 1016.0
20260906043303 21 133 1.6 4.8 0.00 0.00 0.00 100 1016.1
20260906042803 21 133 1.6 3.2 0.00 0.00 0.00 100 1016.1
20260906042306 21 133 1.6 3.2 0.00 0.00 0.00 100 1016.1
20260906041803 21 133 0.0 3.2 0.00 0.00 0.00 100 1016.1
20260906041303 21 133 0.0 3.2 0.00 0.00 0.00 100 1016.0
20260906040803 21 133 1.6 3.2 0.00 0.00 0.00 100 1015.9
20260906040303 21 133 0.0 3.2 0.00 0.00 0.00 100 1016.0
20260906035803 21 133 0.0 0.0 0.00 0.00 0.00 100 1015.9
20260906035306 21 133 0.0 1.6 0.00 0.00 0.00 100 1015.8
20260906034804 21 133 0.0 3.2 0.00 0.00 0.00 100 1015.8
20260906033304 21 133 0.0 0.0 0.00 0.00 0.00 100 1016.0
20260906032804 21 133 0.0 0.0 0.00 0.00 0.00 100 1016.0
20260906032306 21 133 0.0 0.0 0.00 0.00 0.00 100 1016.0
20260906031303 21 133 0.0 0.0 0.00 0.00 0.00 100 1016.0
20260906030802 21 133 0.0 0.0 0.00 0.00 0.00 100 1016.0
20260906030303 21 133 0.0 0.0 0.00 0.00 0.00 100 1016.0
20260906025803 21 133 0.0 0.0 0.00 0.00 0.00 100 1015.8
20260906025306 21 133 0.0 0.0 0.00 0.00 0.00 100 1015.7
20260906024303 21 133 0.0 0.0 0.00 0.00 0.00 100 1015.6
20260906023803 21 133 0.0 1.6 0.00 0.00 0.00 100 1015.5
20260906023303 21 133 0.0 0.0 0.00 0.00 0.00 100 1015.5
20260906022803 21 133 0.0 0.0 0.00 0.00 0.00 100 1015.4
20260906022306 21 133 0.0 0.0 0.00 0.00 0.00 100 1015.1
20260906021803 21 133 0.0 0.0 0.00 0.00 0.00 100 1015.1
20260906021303 21 133 0.0 0.0 0.00 0.00 0.00 100 1015.1
20260906020303 21 133 0.0 0.0 0.00 0.00 0.00 100 1014.7
20260906015803 21 133 0.0 0.0 0.00 0.00 0.00 100 1014.7
20260906015306 21 133 0.0 0.0 0.00 0.00 0.00 100 1014.5
20260906014803 21 133 0.0 0.0 0.00 0.00 0.00 100 1014.3
20260906014304 21 133 0.0 0.0 0.00 0.00 0.00 100 1014.3
20260906013803 21 133 0.0 0.0 0.00 0.00 0.00 100 1014.3
20260906013303 21 133 0.0 0.0 0.00 0.00 0.00 100 1014.2
20260906012803 21 133 0.0 0.0 0.00 0.00 0.00 100 1014.3
20260906012306 21 133 0.0 0.0 0.00 0.00 0.00 100 1014.3
20260906011803 22 133 0.0 0.0 0.00 0.00 0.00 100 1014.3
20260906011303 22 133 0.0 0.0 0.00 0.00 0.00 100 1014.2
20260906010803 22 133 0.0 1.6 0.00 0.00 0.00 100 1014.1
20260906005803 22 133 0.0 0.0 0.00 0.00 0.00 100 1013.9
20260906004803 22 133 0.0 0.0 0.00 0.00 0.00 100 1013.8
20260906004303 22 133 0.0 0.0 0.00 0.00 0.00 100 1013.8
20260906003803 22 133 0.0 0.0 0.00 0.00 0.00 100 1013.7
20260906003303 22 133 0.0 1.6 0.00 0.00 0.00 100 1013.7
20260906002305 23 133 0.0 0.0 0.00 0.00 0.00 100 1013.8
20260906001803 23 133 0.0 3.2 0.00 0.00 0.00 100 1013.7
20260906001303 23 125 1.6 4.8 0.00 0.00 0.00 100 1013.7
20260906000803 24 93 1.6 4.8 0.00 0.00 0.00 100 1013.8
20260905235803 24 118 3.2 8.0 0.00 0.00 0.00 90 1013.9
20260905234803 24 100 3.2 8.0 0.00 0.00 0.00 90 1013.9
20260905233803 25 123 4.8 14.5 0.00 0.00 0.00 90 1013.8
20260905232803 25 135 6.4 12.9 0.00 0.00 0.00 90 1013.7
20260905232306 25 121 3.2 12.9 0.00 0.00 0.00 90 1013.6
20260905231803 25 118 3.2 11.3 0.00 0.00 0.00 90 1013.4
20260905230803 25 76 6.4 16.1 0.00 0.00 0.00 90 1013.4
20260905230303 25 92 4.8 14.5 0.00 0.00 0.00 90 1013.3
20260905225804 25 75 4.8 16.1 0.00 0.00 0.00 91 1013.2
20260905224303 25 64 3.2 9.7 0.00 0.00 0.00 91 1013.1
20260905223803 25 110 4.8 14.5 0.00 0.00 0.00 91 1013.1
20260905223303 25 67 9.7 19.3 0.00 0.00 0.00 91 1013.0
20260905222803 25 80 14.5 19.3 0.00 0.00 0.00 91 1013.0
20260905222306 25 71 4.8 19.3 0.00 0.00 0.00 91 1013.0
20260905221303 25 78 4.8 19.3 0.00 0.00 0.00 91 1012.9
20260905220803 25 71 9.7 24.1 0.00 0.00 0.00 91 1012.8
20260905220303 25 76 9.7 20.9 0.00 0.00 0.00 91 1012.7
20260905215306 25 95 11.3 19.3 0.00 0.00 0.00 92 1012.9
20260905214304 26 74 9.7 20.9 0.00 0.00 0.00 92 1013.0
20260905213804 26 41 6.4 19.3 0.00 0.00 0.00 92 1013.1
20260905213303 26 71 11.3 20.9 0.00 0.00 0.00 92 1013.0
20260905212803 26 66 8.0 12.9 0.00 0.00 0.00 92 1013.0
20260905212306 26 69 8.0 20.9 0.00 0.00 0.00 92 1013.0
20260905211803 26 78 6.4 20.9 0.00 0.00 0.00 92 1013.2
20260905211303 26 67 11.3 19.3 0.00 0.00 0.00 92 1013.2
20260905210803 26 70 9.7 19.3 0.00 0.00 0.00 92 1013.2
20260905210303 26 80 9.7 19.3 0.00 0.00 0.00 92 1013.2
20260905205803 26 88 11.3 19.3 0.00 0.00 0.00 93 1013.2
20260905205306 26 52 9.7 19.3 0.00 0.00 0.00 93 1013.3
20260905204803 26 59 9.7 16.1 0.00 0.00 0.00 93 1013.4
20260905204303 26 87 8.0 16.1 0.00 0.00 0.00 93 1013.6
20260905203803 26 32 6.4 16.1 0.00 0.00 0.00 93 1013.5
20260905202803 26 86 6.4 16.1 0.00 0.00 0.00 93 1013.8
20260905202306 26 79 8.0 16.1 0.00 0.00 0.00 93 1013.9
20260905200803 26 77 4.8 11.3 0.00 0.00 0.00 93 1014.1
20260905195803 26 122 0.0 9.7 0.00 0.00 0.00 93 1014.3
20260905195306 26 181 1.6 4.8 0.00 0.00 0.00 93 1014.4
20260905194803 26 181 1.6 4.8 0.00 0.00 0.00 93 1014.4
20260905194304 26 161 0.0 4.8 0.00 0.00 0.00 93 1014.3
20260905193803 26 125 1.6 9.7 0.00 0.00 0.00 93 1014.5
20260905193303 26 223 1.6 4.8 0.00 0.00 0.00 93 1014.4
20260905192803 26 223 1.6 9.7 0.00 0.00 0.00 93 1014.5
20260905192306 26 132 1.6 9.7 0.00 0.00 0.00 93 1014.5
20260905191303 27 191 3.2 11.3 0.00 0.00 0.00 93 1014.4
20260905185803 27 151 6.4 12.9 0.00 0.00 0.00 94 1014.4
20260905185305 26 238 3.2 12.9 0.00 0.00 0.00 94 1014.5
20260905184803 27 119 3.2 14.5 0.00 0.00 0.00 94 1014.5
20260905183803 26 163 4.8 11.3 0.00 0.00 0.00 94 1014.6
20260905183303 26 41 4.8 12.9 0.00 0.00 0.00 94 1014.6
20260905182803 26 77 8.0 14.5 0.00 0.00 0.00 94 1014.6
20260905182305 25 61 3.2 8.0 0.00 0.00 0.00 94 1014.8
20260905181803 25 73 3.2 11.3 0.00 0.00 0.00 94 1014.8
20260905181303 25 35 3.2 11.3 0.00 0.00 0.00 94 1014.9
20260905180803 25 110 3.2 12.9 0.00 0.00 0.00 94 1015.1
20260905174803 24 199 0.0 4.8 0.00 0.00 0.00 100 1015.4
20260905174303 24 170 3.2 4.8 0.00 0.00 0.00 100 1015.5
20260905173803 24 138 0.0 4.8 0.00 0.00 0.00 100 1015.5
20260905173303 24 63 3.2 8.0 0.00 0.00 0.00 100 1015.4
20260905172803 24 77 3.2 4.8 0.00 0.00 0.00 100 1015.4
20260905172305 24 75 8.0 12.9 0.00 0.00 0.00 100 1015.4
20260905171803 24 87 4.8 11.3 0.00 0.00 0.00 100 1015.5
20260905171303 24 119 3.2 4.8 0.00 0.00 0.00 100 1015.6
20260905170803 24 167 1.6 4.8 0.00 0.00 0.00 100 1015.7
20260905170303 24 138 0.0 4.8 0.00 0.00 0.00 100 1015.7
20260905165803 23 135 3.2 9.7 0.00 0.00 0.00 100 1015.7
20260905165306 24 190 1.6 4.8 0.00 0.00 0.00 100 1015.6
20260905163803 23 166 1.6 4.8 0.00 0.00 0.00 100 1015.5
20260905163303 23 117 6.4 12.9 0.00 0.00 0.00 100 1015.4
20260905162804 23 91 4.8 14.5 0.00 0.00 0.00 100 1015.3
20260905162305 23 68 4.8 14.5 0.00 0.00 0.00 100 1015.2
20260905161803 23 69 3.2 11.3 0.00 0.00 0.00 100 1015.2
20260905161303 23 58 3.2 4.8 0.00 0.00 0.00 100 1015.1
20260905160803 23 106 4.8 9.7 0.00 0.00 0.00 100 1015.1
20260905160303 23 74 3.2 12.9 0.00 0.00 0.00 100 1015.0
20260905155804 23 137 3.2 12.9 0.00 0.00 0.00 100 1015.1
20260905155306 23 95 4.8 9.7 0.00 0.00 0.00 100 1015.0
20260905154803 23 79 8.0 12.9 0.00 0.00 0.00 100 1015.0
20260905154303 23 92 8.0 19.3 0.00 0.00 0.00 100 1015.0
20260905153803 23 83 8.0 19.3 0.00 0.00 0.00 100 1015.0
20260905153303 23 105 1.6 9.7 0.00 0.00 0.00 100 1014.9
20260905152803 23 72 4.8 9.7 0.00 0.00 0.00 100 1015.1
20260905152306 23 88 4.8 14.5 0.00 0.00 0.00 100 1015.0
20260905151804 23 70 6.4 16.1 0.00 0.00 0.00 100 1015.0
20260905151304 23 93 4.8 12.9 0.00 0.00 0.00 100 1015.0
20260905150803 23 81 4.8 12.9 0.00 0.00 0.00 100 1014.9
20260905150304 23 64 4.8 12.9 0.00 0.00 0.00 100 1014.9
20260905145804 23 51 3.2 4.8 0.00 0.00 0.00 100 1014.8